Location: Medlow Airstrip Trail, Medlow Bath NSW 2780, Australia
(33.6682°S, 150.3233°E)
Time: 12:47:25
(UTC+11:00)

Explorer 11/Cluster Stage 4 - Pass Details

Date: 29 September 2019
Orbit: 467 x 1259 km, 28.8° (Epoch: 14 October)

Event Time Altitude Azimuth Distance (km) Brightness Sun altitude
Rises 06:32:32 0° 303° (WNW) 2,502 8.7 10.2°
Reaches altitude 10° 06:34:49 10° 315° (NW) 1,660 7.9 10.7°
Maximum altitude 06:38:04 28° 16° (NNE) 991 7.5 11.3°
Drops below altitude 10° 06:41:43 10° 75° (ENE) 1,875 11.1 12.1°
Sets 06:44:28 0° 86° (E) 2,900 11.6 12.7°
